DW7287 Weather Reports


time (UTC)temp
C
wind
direction
speed
KPH
gust
KPH
rain 1hr
cm
rain 24hr
cm
rain mn
cm
humidity
%
barometer
mb
20260508091607 1 0 0.0 0.0 0.00 0.00 0.00 92 1015.6
20260508090056 1 0 0.0 0.0 0.00 0.00 0.00 92 1015.5
20260508084608 1 0 0.0 0.0 0.00 0.00 0.00 92 1015.5
20260508083107 1 0 0.0 0.0 0.00 0.00 0.00 91 1015.5
20260508081554 1 0 0.0 0.0 0.00 0.00 0.00 91 1015.3
20260508080106 1 0 0.0 0.0 0.00 0.00 0.00 91 1015.3
20260508074554 1 0 0.0 0.0 0.00 0.00 0.00 91 1015.4
20260508073103 2 0 0.0 0.0 0.00 0.00 0.00 90 1015.3
20260508071552 2 0 0.0 0.0 0.00 0.00 0.00 90 1015.3
20260508070054 2 0 0.0 0.0 0.00 0.00 0.00 90 1015.4
20260508064558 2 0 0.0 0.0 0.00 0.00 0.00 89 1015.6
20260508063054 2 0 0.0 0.0 0.00 0.00 0.00 88 1015.6
20260508061552 2 0 0.0 0.0 0.00 0.00 0.00 89 1015.4
20260508060058 3 0 0.0 0.0 0.00 0.00 0.00 88 1015.4
20260508054559 3 0 0.0 0.0 0.00 0.00 0.00 86 1015.5
20260508053055 3 0 0.0 0.0 0.00 0.00 0.00 85 1015.6
20260508051553 3 0 0.0 0.0 0.00 0.00 0.00 86 1015.6
20260508050104 3 0 0.0 0.0 0.00 0.00 0.00 84 1015.6
20260508044555 4 0 0.0 0.0 0.00 0.00 0.00 82 1015.6
20260508043101 5 0 0.0 0.0 0.00 0.00 0.00 81 1015.7
20260508041601 5 0 0.0 0.0 0.00 0.00 0.00 79 1015.5
20260508034555 6 0 0.0 0.0 0.00 0.00 0.00 75 1015.3
20260508033054 6 0 0.0 0.0 0.00 0.00 0.00 74 1015.4
20260508031556 6 0 0.0 0.0 0.00 0.00 0.00 71 1015.4
20260508030057 7 0 0.0 0.0 0.00 0.00 0.00 67 1015.2
20260508024558 7 0 0.0 0.0 0.00 0.00 0.00 65 1015.0
20260508023051 8 0 0.0 1.6 0.00 0.00 0.00 64 1014.9
20260508021555 8 0 0.0 0.0 0.00 0.00 0.00 60 1014.7
20260508020056 8 0 0.0 0.0 0.00 0.00 0.00 59 1014.5
20260508014552 9 0 0.0 0.0 0.00 0.00 0.00 58 1014.4
20260508013053 10 0 0.0 1.6 0.00 0.00 0.00 60 1014.2
20260508011552 10 360 0.0 1.6 0.00 0.00 0.00 56 1014.1
20260508010053 11 0 0.0 0.0 0.00 0.00 0.00 48 1013.9
20260508004558 12 0 0.0 4.8 0.00 0.00 0.00 46 1013.8
20260508003053 13 0 1.6 12.9 0.00 0.00 0.00 39 1013.7
20260508001555 13 360 1.6 12.9 0.00 0.00 0.00 39 1013.5
20260508000100 13 360 3.2 12.9 0.00 0.00 0.00 36 1013.2
20260507234602 15 360 3.2 9.7 0.00 0.00 0.00 34 1013.0
20260507233116 15 360 6.4 14.5 0.00 0.00 0.00 33 1012.9
20260507231600 15 360 4.8 14.5 0.00 0.00 0.00 34 1012.8
20260507230054 15 360 4.8 20.9 0.00 0.00 0.00 34 1012.7
20260507224554 16 360 8.0 19.3 0.00 0.00 0.00 34 1012.6
20260507223101 16 360 6.4 24.1 0.00 0.00 0.00 35 1012.5
20260507221554 16 360 4.8 17.7 0.00 0.00 0.00 36 1012.3
20260507220057 16 360 3.2 12.9 0.00 0.00 0.00 38 1012.3
20260507214551 16 360 4.8 17.7 0.00 0.00 0.00 39 1012.1
20260507213056 16 360 1.6 17.7 0.00 0.00 0.00 40 1012.0
20260507211602 16 360 8.0 19.3 0.00 0.00 0.00 40 1011.9
20260507210112 16 13 8.0 22.5 0.00 0.00 0.00 38 1011.7
20260507204556 16 360 4.8 17.7 0.00 0.00 0.00 39 1011.6
20260507203055 16 360 4.8 14.5 0.00 0.00 0.00 42 1011.7
20260507201558 16 360 4.8 14.5 0.00 0.00 0.00 44 1011.8
20260507200103 16 360 4.8 17.7 0.00 0.00 0.00 40 1011.8
20260507194600 15 360 4.8 16.1 0.00 0.00 0.00 43 1012.1
20260507193055 16 360 6.4 25.7 0.00 0.00 0.00 43 1012.1
20260507191552 16 360 4.8 14.5 0.00 0.00 0.00 43 1012.3
20260507184554 15 360 4.8 14.5 0.00 0.00 0.00 44 1012.5
20260507183113 15 360 3.2 16.1 0.00 0.00 0.00 46 1012.6
20260507181558 16 0 1.6 16.1 0.00 0.00 0.00 45 1012.4
20260507180053 16 360 4.8 12.9 0.00 0.00 0.00 43 1012.5
20260507174602 16 360 4.8 25.7 0.00 0.00 0.00 42 1012.6
20260507173055 16 360 1.6 17.7 0.00 0.00 0.00 46 1012.8
20260507171556 16 360 4.8 17.7 0.00 0.00 0.00 48 1012.9
20260507170059 16 360 3.2 9.7 0.00 0.00 0.00 50 1013.1
20260507164628 15 360 1.6 12.9 0.00 0.00 0.00 48 1013.2
20260507163103 15 360 3.2 9.7 0.00 0.00 0.00 50 1013.4
20260507161600 14 360 3.2 16.1 0.00 0.00 0.00 49 1013.4
20260507160057 15 360 3.2 16.1 0.00 0.00 0.00 48 1013.6
20260507154559 14 360 1.6 14.5 0.00 0.03 0.00 52 1013.6
20260507153056 15 360 3.2 12.9 0.00 0.03 0.00 49 1013.7
20260507151552 14 360 1.6 12.9 0.00 0.03 0.00 51 1013.7
20260507150054 14 360 3.2 12.9 0.00 0.03 0.00 52 1013.8
20260507144553 14 360 3.2 6.4 0.00 0.05 0.00 54 1013.9
20260507143051 13 360 3.2 8.0 0.00 0.05 0.00 59 1013.9
20260507141551 13 360 1.6 8.0 0.00 0.05 0.00 56 1014.1
20260507140053 13 360 4.8 8.0 0.00 0.05 0.00 55 1014.3
20260507134550 12 360 3.2 16.1 0.00 0.10 0.00 57 1014.5
20260507133053 12 360 3.2 6.4 0.00 0.10 0.00 63 1014.6
20260507131600 12 78 1.6 6.4 0.00 0.10 0.00 64 1014.8
20260507130055 11 0 0.0 4.8 0.00 0.10 0.00 73 1014.8
20260507124601 9 0 0.0 0.0 0.00 0.23 0.00 85 1014.7
20260507123051 8 0 0.0 0.0 0.00 0.23 0.00 92 1014.7
20260507121556 8 0 0.0 0.0 0.00 0.23 0.00 93 1014.7
20260507120054 7 0 0.0 0.0 0.00 0.23 0.00 93 1014.9
20260507114606 7 0 0.0 0.0 0.00 0.46 0.00 93 1014.8
20260507113119 7 0 0.0 0.0 0.00 0.46 0.00 93 1014.6
20260507111557 7 0 0.0 3.2 0.00 0.46 0.00 93 1014.3
20260507110056 7 0 0.0 1.6 0.00 0.46 0.00 92 1014.2
20260507104550 6 0 0.0 0.0 0.00 0.71 0.00 91 1014.0
20260507103054 6 0 0.0 0.0 0.00 0.71 0.00 91 1013.9
20260507101551 6 0 0.0 0.0 0.00 0.71 0.00 91 1013.7
20260507100057 7 0 0.0 0.0 0.00 0.71 0.00 90 1013.9
20260507094554 7 0 0.0 0.0 0.00 1.19 0.00 89 1013.9
20260507093054 7 0 0.0 0.0 0.00 1.19 0.00 88 1013.9